GFSSW_prec_cloud_003.txt.gz
Cloud_Cover
87 33 9 97 88 13 72 100 100 100 100 100 100 100 100 100 100 100 100 100 100 36 100 100 100 100 98 95 96 70 8 100 100 100 99 6 3 3 5 5 30 0 5 5 5
100 100 99 1 8 3 0 5 57 100 100 100 100 100 100 66 100 100 100 100 99 79 62 84 100 100 99 44 45 6 19 98 100 97 14 65 5 56 5 13 100 4 5 5 5
10 59 100 93 0 4 4 14 21 100 100 100 100 98 72 96 61 100 100 100 100 90 66 56 52 100 76 91 23 71 99 49 100 100 32 11 69 82 66 96 20 68 48 5 5
1 67 31 3 1 0 0 23 24 93 87 100 99 100 61 100 85 100 100 100 100 100 100 100 100 97 94 32 100 24 95 5 65 55 5 18 90 100 52 96 47 34 6 5 5
0 20 32 5 80 54 37 2 5 0 5 9 88 97 100 65 100 100 100 100 91 100 100 100 100 100 100 100 99 3 3 3 5 5 10 95 94 93 100 98 100 22 5 16 3
94 100 0 0 81 100 23 0 22 0 0 64 6 87 100 79 100 100 100 100 100 50 89 100 100 100 93 28 45 5 5 5 4 58 91 24 100 22 100 99 33 5 4 5 5
46 0 0 0 0 21 23 0 1 0 7 100 98 8 72 3 72 100 84 100 90 76 6 87 98 100 99 13 36 6 25 6 28 100 27 100 100 83 88 100 7 5 0 1 95
76 8 0 0 0 0 0 0 0 0 38 100 100 63 29 0 0 48 32 2 5 5 8 9 100 36 7 7 35 85 100 100 100 100 100 100 100 52 86 35 5 3 28 100 100
2 0 0 6 0 0 0 0 0 0 68 57 75 65 2 0 0 0 0 0 27 4 38 100 22 11 12 70 48 100 97 76 92 100 100 89 0 97 26 4 5 100 100 100 100
0 1 0 0 1 0 0 0 0 0 2 10 61 27 0 0 0 0 0 0 0 13 26 56 5 4 0 26 20 19 1 0 0 61 92 20 7 29 40 92 100 100 100 57 66
76 1 0 0 0 0 0 0 0 11 4 0 0 0 0 0 0 0 0 0 0 0 3 5 76 0 0 0 0 0 0 0 0 1 5 35 11 98 100 100 100 100 9 0 0
10 3 0 0 0 3 5 0 44 31 24 0 0 0 0 0 1 0 0 0 0 0 0 4 2 0 36 0 15 3 0 0 0 0 15 5 1 0 0 100 38 28 0 5 5
0 0 0 0 0 14 5 0 1 8 42 0 0 0 0 0 0 0 0 0 0 0 0 0 1 47 100 15 12 4 0 3 18 36 5 5 1 0 0 0 0 0 3 5 0
0 0 0 0 1 1 4 0 5 10 44 0 0 0 0 0 0 0 0 0 0 0 0 0 0 0 4 3 5 5 94 8 29 21 3 5 0 0 0 0 2 14 5 4 0
0 0 0 0 98 78 2 1 2 74 6 0 1 33 6 1 2 0 0 0 0 0 0 0 0 0 0 28 88 8 46 19 5 0 0 0 0 21 0 44 100 32 0 4 6
0 23 99 98 71 10 0 0 3 31 33 0 0 0 26 40 13 3 0 0 0 0 0 0 0 0 1 93 94 65 30 0 0 0 0 0 0 100 96 58 12 2 88 6 49
1 65 97 86 20 5 2 3 7 60 0 30 3 0 0 3 100 17 2 0 0 0 0 0 0 0 0 5 14 1 7 42 1 0 0 4 25 100 34 44 53 98 15 60 0
0 0 7 13 43 51 87 34 86 4 3 1 0 0 0 0 80 100 10 1 0 0 0 0 0 0 0 0 4 95 70 41 4 1 2 0 95 100 10 2 96 58 6 5 8
0 0 5 8 99 73 89 92 5 11 50 28 2 1 0 5 26 100 100 50 1 3 9 0 0 0 0 0 1 30 2 86 0 0 11 62 94 100 2 65 68 11 62 13 13
58 71 60 18 100 100 100 97 65 74 16 5 36 4 5 5 36 100 100 100 53 36 47 0 0 0 0 0 0 0 0 0 0 1 100 100 99 100 24 95 13 100 100 87 5
0 2 6 88 52 100 100 82 91 91 50 15 5 90 57 8 100 100 100 100 100 21 81 9 2 0 0 0 0 0 0 0 2 99 100 100 100 14 100 2 91 100 87 30 13
20 4 23 5 6 100 100 100 13 13 27 20 66 100 76 90 100 100 100 100 100 100 94 29 5 0 0 0 0 0 0 0 0 100 100 100 80 6 77 5 100 100 69 45 92
86 83 5 13 76 98 100 25 10 41 67 10 22 53 14 5 100 100 100 100 100 100 100 83 66 0 0 0 0 0 0 0 4 1 100 100 30 44 100 97 99 100 97 100 5
33 38 5 5 88 99 100 25 55 22 64 84 50 85 34 62 100 100 100 100 100 100 100 77 1 0 0 0 0 4 0 0 0 1 100 100 79 94 57 5 99 100 100 35 5
6 9 36 77 62 100 100 100 94 81 5 6 59 98 100 81 100 100 100 100 100 100 100 29 3 0 0 0 0 0 0 11 95 100 100 88 59 96 70 12 100 100 21 6 5
91 90 62 91 100 100 100 100 98 64 77 6 48 30 76 21 98 100 100 100 100 100 100 28 5 0 0 0 0 0 0 0 100 100 100 33 53 100 100 99 100 100 84 11 5
98 100 100 70 100 100 95 100 100 100 41 45 79 83 5 7 100 100 100 100 100 100 100 99 15 4 0 1 0 0 1 0 98 100 86 10 98 10 2 92 80 100 64 42 5

GFSSW_prec_cloud_006.txt.gz
Cloud_Cover
78 87 87 4 38 100 100 100 60 91 100 86 84 74 60 100 100 100 100 100 100 100 100 100 100 100 100 100 69 74 20 89 100 100 100 47 12 83 11 82 100 2 5 5 18
0 0 1 2 35 72 81 100 40 67 100 100 39 61 100 100 100 100 100 100 96 97 100 100 100 100 100 94 98 96 83 100 100 71 92 95 15 51 7 71 100 6 5 3 5
63 72 13 26 1 0 0 13 75 100 98 48 100 100 100 100 100 100 100 100 100 47 99 100 100 47 49 82 9 80 46 63 91 81 100 16 53 23 86 100 100 7 5 80 5
99 72 98 44 47 100 22 8 62 91 100 5 14 66 13 99 98 100 100 100 100 100 85 99 100 16 100 74 100 21 56 60 85 100 92 78 18 99 87 69 100 44 100 86 5
100 1 0 0 2 9 0 0 0 0 0 21 100 5 5 4 58 100 100 99 97 100 100 79 63 68 7 65 99 8 7 5 45 59 49 90 59 90 87 86 100 20 100 29 5
85 29 0 0 0 0 17 0 0 0 0 0 82 72 1 3 2 1 8 100 98 42 99 93 78 64 5 7 86 100 85 5 45 89 58 34 14 38 96 100 69 20 100 30 5
15 0 0 0 0 0 0 0 0 0 0 2 36 58 0 0 0 0 0 7 82 88 11 5 28 84 5 16 0 2 8 12 50 100 100 97 27 95 88 100 63 5 12 9 5
0 0 0 0 0 0 0 0 0 0 0 21 48 88 4 0 0 0 1 5 2 5 0 0 0 0 0 9 14 5 11 52 96 91 100 100 97 100 99 70 5 6 6 8 92
0 0 0 0 0 0 0 0 0 0 8 90 75 37 0 0 0 0 0 0 0 0 0 0 3 4 0 0 0 0 10 3 6 49 100 46 62 96 59 82 28 2 16 99 100
50 5 5 4 4 2 0 0 0 1 9 1 4 0 0 0 0 0 0 0 0 0 0 0 0 0 0 0 0 1 2 0 1 11 5 0 1 28 5 26 0 0 51 100 100
4 2 20 5 16 5 5 4 5 7 0 0 0 0 0 0 0 0 0 0 0 0 0 0 0 0 0 0 0 0 5 5 5 0 4 69 1 0 1 5 0 0 0 80 100
0 2 5 5 10 5 5 4 8 7 14 0 0 0 0 0 0 0 0 0 0 0 0 0 0 0 0 0 0 5 6 0 0 0 62 7 4 0 0 0 0 0 0 13 3
0 0 0 0 0 21 2 2 1 45 38 0 0 0 0 0 0 0 0 0 0 0 0 0 0 6 0 0 0 0 0 3 26 53 74 1 0 0 0 0 0 0 0 0 0
0 0 0 0 7 4 11 5 3 37 50 0 0 3 2 0 0 0 0 0 0 0 0 0 0 0 0 0 0 0 0 94 38 27 5 81 4 0 0 0 0 0 0 0 0
0 0 90 32 14 4 6 5 9 52 12 2 45 5 8 6 16 89 0 0 0 0 1 0 0 0 0 0 0 0 99 50 5 5 47 5 1 0 0 0 5 0 0 0 0
0 20 10 3 86 27 15 2 44 76 98 44 77 43 25 81 90 100 96 0 0 0 2 0 0 0 0 0 0 0 4 11 3 4 2 73 4 95 0 0 0 0 0 1 53
0 0 80 11 76 67 65 85 90 97 78 83 100 100 10 4 96 91 86 99 3 0 0 1 0 0 0 0 0 0 2 0 0 0 16 37 1 92 0 26 4 58 5 9 97
0 2 10 56 100 69 56 100 99 100 100 100 100 99 8 36 100 37 41 96 96 0 0 40 5 0 0 0 0 0 0 0 5 1 4 0 9 100 4 97 100 57 26 100 100
0 6 100 41 22 86 100 100 100 99 97 100 100 100 100 100 100 91 8 17 64 42 37 100 22 0 0 0 0 0 0 3 29 0 19 72 58 100 96 100 62 14 100 100 84
0 4 93 53 80 100 100 90 100 100 98 98 100 100 100 100 100 98 70 100 99 92 66 100 98 45 0 0 0 0 0 18 1 7 71 96 100 100 100 48 96 100 98 55 21
18 34 18 12 87 96 98 87 98 95 98 86 100 100 100 100 78 100 89 100 100 78 18 100 100 100 43 0 0 0 0 0 0 8 100 100 100 100 99 86 97 100 100 100 99
11 20 5 5 87 92 84 75 24 99 100 100 96 100 100 100 80 74 99 99 100 94 25 100 86 100 6 0 0 0 0 0 0 96 100 100 100 100 93 100 94 87 86 100 5
9 5 8 19 64 100 93 67 96 99 79 100 98 100 91 98 96 64 100 100 100 100 100 68 95 100 100 63 0 0 0 0 0 1 100 100 32 6 100 99 100 100 100 100 100
20 61 82 60 100 100 100 100 88 92 75 97 100 94 85 99 100 100 100 100 100 100 100 100 100 95 100 1 0 0 0 3 4 52 100 100 67 40 100 100 100 100 100 100 74
48 44 76 94 89 100 100 100 83 96 92 87 100 100 100 95 98 100 100 100 100 100 100 96 100 100 100 100 2 4 0 0 0 99 100 100 18 94 100 91 100 99 100 100 87
95 66 73 100 100 100 99 100 100 100 100 58 100 98 66 97 100 100 100 100 100 100 100 92 94 100 100 88 5 37 3 0 0 98 69 100 3 20 100 93 99 100 100 50 5
50 47 100 34 100 99 99 100 96 100 65 94 83 80 90 96 70 100 100 100 100 100 100 100 90 100 100 74 11 6 0 0 5 37 98 57 4 0 28 70 100 100 100 100 93

GFSSW_prec_cloud_009.txt.gz
Cloud_Cover
0 1 0 83 100 32 5 49 100 100 100 100 100 100 100 100 100 100 100 100 100 100 45 69 98 98 100 100 100 100 90 100 100 100 100 100 100 84 52 100 100 98 6 38 2
0 4 0 0 46 58 65 3 41 76 100 100 100 99 96 100 100 100 100 100 100 96 59 62 84 100 100 98 83 70 82 100 100 100 100 100 100 100 100 100 49 25 20 13 45
5 0 0 0 0 1 23 35 8 3 99 85 100 100 68 10 14 82 95 100 100 100 100 100 100 97 95 100 94 98 100 100 100 100 100 100 99 95 100 99 88 41 39 5 5
29 73 0 0 0 0 0 1 0 36 11 100 61 100 70 17 40 5 74 84 100 100 100 87 100 92 94 95 100 42 29 82 96 92 91 100 100 100 100 100 31 79 15 2 5
80 0 0 0 0 0 0 0 0 0 0 1 49 100 100 16 37 51 100 94 98 6 100 100 93 77 10 32 96 11 99 50 23 56 23 20 30 5 59 69 99 15 73 6 23
0 0 0 2 0 1 0 0 0 0 0 0 41 0 24 14 11 4 14 100 100 50 67 96 25 42 3 5 42 94 6 12 73 5 5 15 10 5 96 100 99 79 20 73 91
17 0 0 0 0 0 0 0 0 0 0 0 27 5 0 0 0 0 0 1 0 0 0 8 100 100 97 8 4 5 41 47 23 100 100 100 31 96 100 99 46 72 9 21 100
0 0 0 7 8 3 0 0 0 0 0 0 12 0 0 0 0 0 2 0 0 0 0 0 1 3 3 31 48 5 52 67 100 99 5 93 12 47 100 98 89 92 67 69 5
11 0 0 0 0 0 0 0 0 0 1 7 0 2 0 0 0 0 0 0 0 0 0 0 0 0 0 0 0 0 5 88 60 38 5 97 14 100 35 11 6 5 23 10 30
15 2 0 0 0 0 2 0 0 0 2 7 4 7 0 0 0 0 0 0 0 0 0 0 0 0 0 0 0 4 8 5 14 16 17 69 61 5 97 22 4 5 20 4 0
1 0 0 0 0 0 0 0 3 4 98 4 0 0 0 0 0 0 0 0 0 0 0 0 0 0 0 0 0 0 0 0 0 1 100 52 78 18 73 2 5 0 5 0 0
0 0 0 0 0 0 0 5 5 3 4 34 2 0 0 0 0 0 0 0 0 0 0 0 0 0 0 0 0 0 0 0 0 0 100 100 61 0 1 2 1 0 0 1 0
0 0 0 0 0 9 4 11 5 5 36 0 0 3 0 0 0 0 0 0 0 0 0 0 0 2 0 0 0 0 0 0 0 3 100 68 4 0 0 0 0 0 0 0 0
0 0 0 0 2 2 62 7 5 68 19 1 9 1 2 2 0 3 0 0 0 0 0 0 0 0 0 0 0 0 0 0 3 7 36 91 12 2 0 0 0 0 0 0 0
0 0 20 1 5 6 45 45 71 87 10 86 95 52 5 63 61 88 68 5 0 0 0 0 0 0 0 0 0 0 0 2 17 0 4 3 2 0 2 0 0 0 0 0 0
0 0 12 3 76 37 73 100 86 82 82 100 98 99 100 100 100 100 100 49 7 7 0 0 0 0 0 0 0 0 0 4 13 5 3 1 21 69 0 0 3 24 1 0 0
0 0 22 20 69 40 82 88 95 98 99 100 94 88 99 95 100 100 100 100 99 91 0 0 0 4 0 0 0 0 0 5 1 0 0 3 2 96 0 0 1 0 0 1 1
0 25 46 50 37 100 28 100 100 100 100 29 86 100 100 100 100 100 100 100 100 98 89 0 0 1 0 0 0 0 0 0 0 4 4 5 1 98 0 0 0 5 27 56 9
10 8 54 72 9 36 81 100 100 100 99 99 100 100 92 45 100 100 100 100 97 96 63 97 1 0 3 7 4 0 22 0 2 7 52 45 14 100 5 5 4 3 35 4 5
17 62 95 5 5 63 83 98 100 100 99 100 100 90 100 64 100 100 100 89 0 3 100 48 84 2 22 46 3 11 2 0 0 5 71 16 75 100 5 5 33 5 1 30 100
5 90 96 5 77 95 42 100 100 90 97 100 96 100 100 100 100 100 100 97 2 9 100 63 95 53 88 78 0 0 50 0 1 12 29 99 100 5 5 64 100 45 97 100 96
5 94 5 5 86 90 76 91 30 100 100 100 80 100 100 100 100 100 100 100 100 83 31 32 100 40 100 89 5 0 4 1 0 4 42 77 100 5 9 82 100 100 100 100 100
60 92 64 29 48 70 80 100 100 98 100 100 100 100 100 95 88 100 64 99 100 96 100 48 80 95 100 89 22 24 9 84 0 83 63 99 97 6 87 100 100 100 100 100 100
62 91 74 80 98 76 94 96 100 100 84 100 100 96 98 100 100 100 99 100 100 100 94 100 100 100 100 83 74 58 5 28 23 42 78 100 20 100 100 100 100 100 48 100 92
56 17 95 95 72 87 100 100 100 100 57 95 100 100 100 100 100 100 100 90 100 100 100 99 100 56 100 100 100 97 91 100 100 67 16 100 5 100 100 100 100 74 100 100 100
12 80 47 91 100 100 100 96 100 88 72 72 95 100 100 100 85 100 100 100 100 100 100 100 86 100 100 90 100 100 100 100 100 46 28 74 5 100 100 100 100 45 99 100 100
100 100 97 83 100 100 96 91 93 100 72 100 100 76 97 100 100 100 100 100 100 100 100 99 89 100 100 100 100 100 100 100 100 87 31 39 21 39 98 81 100 100 100 100 100

GFSSW_prec_cloud_012.txt.gz
Cloud_Cover
10 50 76 100 88 27 94 100 100 100 100 38 100 100 100 100 100 100 100 100 100 100 100 99 100 100 100 100 100 100 99 100 100 100 100 100 100 100 100 100 53 91 98 84 79
0 1 0 6 10 66 6 54 100 100 100 100 100 100 100 100 100 94 100 100 100 100 100 100 100 100 100 93 99 99 100 100 100 100 100 100 100 100 100 100 100 100 100 99 98
0 2 15 0 2 9 5 73 20 5 8 92 100 100 100 100 100 48 5 94 100 100 100 99 100 100 100 98 100 97 100 100 100 62 77 92 100 100 100 100 100 100 93 100 58
0 0 0 0 0 8 7 22 30 0 3 18 13 60 94 100 100 100 47 1 100 100 100 100 100 100 100 100 100 95 100 100 49 44 100 21 28 94 95 100 100 83 100 98 5
0 0 0 0 0 0 0 0 0 0 0 19 22 13 2 2 33 5 99 17 29 94 86 88 15 100 100 100 100 92 100 86 87 5 40 41 5 98 92 100 100 100 94 22 7
1 0 0 0 0 0 0 0 0 0 0 0 4 15 1 0 0 0 4 86 100 37 22 19 5 26 86 93 91 100 31 44 18 54 32 56 54 94 78 88 100 30 42 45 2
0 0 0 0 0 0 0 0 0 0 0 0 0 0 0 0 0 0 0 5 5 97 57 5 5 0 5 10 91 96 94 68 10 96 20 100 34 5 86 100 7 5 6 5 26
0 0 0 0 2 4 4 1 0 0 0 0 2 0 0 0 0 0 0 0 1 5 37 100 74 2 0 4 11 21 98 3 64 100 100 100 26 4 20 2 44 0 0 4 5
0 0 0 0 0 0 0 0 2 4 0 0 4 0 0 0 0 0 0 0 0 0 24 24 80 5 0 0 0 5 7 2 62 100 46 79 92 2 5 31 4 5 62 12 1
0 0 0 0 0 0 0 0 0 0 2 16 6 14 0 0 0 0 0 0 0 0 0 0 0 0 0 0 0 38 90 37 0 7 5 34 97 4 4 64 23 84 94 43 0
2 0 0 0 0 0 0 0 0 0 64 25 38 66 5 5 0 0 0 0 0 0 0 0 0 0 0 0 0 1 1 0 0 0 5 5 67 4 0 4 0 5 26 0 0
0 0 0 0 0 0 0 2 13 3 2 0 0 0 1 3 0 0 0 0 0 0 0 0 0 0 4 0 0 0 0 0 0 0 2 80 79 5 0 0 0 0 2 0 0
0 0 0 0 0 0 3 96 4 5 39 0 0 0 0 0 3 0 0 0 0 0 0 3 0 0 0 0 0 0 0 0 0 0 0 99 15 0 0 0 0 0 0 0 0
4 0 11 0 3 0 70 42 4 54 2 32 3 14 0 0 0 2 2 0 0 0 0 0 0 0 0 0 0 0 0 0 0 0 0 24 17 0 0 0 3 2 0 0 0
0 0 6 0 0 4 1 24 48 65 13 100 100 91 90 4 93 81 56 25 6 5 4 2 0 0 0 0 0 0 0 0 0 0 0 2 1 0 0 0 0 0 0 2 2
0 0 0 4 3 10 49 15 75 73 92 92 40 78 72 68 92 95 51 17 11 93 2 1 0 2 0 0 0 0 0 0 0 0 4 0 0 0 1 0 0 1 5 1 21
0 0 8 0 1 13 3 44 100 100 100 100 100 100 100 68 100 57 96 100 59 100 43 0 1 3 0 1 0 0 4 0 0 0 0 0 0 0 0 0 0 2 0 0 4
0 11 0 14 4 5 80 100 100 100 100 100 87 92 62 8 72 93 100 100 100 54 77 99 52 0 5 0 0 0 0 0 0 0 0 0 0 0 0 0 0 0 0 0 0
0 6 33 61 2 5 90 90 98 100 100 44 5 13 100 78 94 32 90 96 100 98 36 98 94 5 4 0 10 0 4 0 0 1 0 2 35 8 0 0 0 4 0 4 1
0 2 60 7 2 42 76 57 98 100 47 73 72 63 100 94 98 100 57 77 5 76 99 76 17 11 0 5 0 42 3 1 0 3 5 1 2 52 7 3 26 3 0 4 5
0 35 5 5 10 28 59 79 78 64 95 100 90 100 100 100 70 57 10 43 8 58 3 29 36 7 1 1 0 1 2 0 2 0 5 36 86 100 1 4 54 2 0 70 99
0 100 6 5 44 64 61 100 100 100 90 85 98 75 100 50 85 97 77 98 83 97 21 33 28 18 18 4 0 4 2 5 0 0 1 5 36 83 0 0 4 5 31 100 100
13 95 6 16 80 100 83 100 96 100 18 86 100 91 40 11 80 100 100 95 100 24 24 87 16 74 99 76 82 27 5 0 5 8 4 20 36 51 0 0 5 13 81 100 100
11 96 96 100 94 100 99 74 91 100 79 96 28 91 66 5 43 95 57 49 52 100 92 94 77 53 91 61 100 100 78 2 20 2 32 7 100 4 2 4 28 51 96 100 100
49 5 40 57 100 100 100 75 100 100 94 98 84 97 100 99 99 100 98 100 100 99 100 100 81 92 100 100 95 99 71 98 100 2 56 52 100 100 76 4 5 100 100 87 87
100 42 8 44 88 99 97 100 100 88 100 98 100 97 100 84 99 99 99 44 98 100 100 100 100 62 100 100 100 97 15 100 100 8 7 100 25 97 83 8 98 100 100 80 100
100 92 100 54 91 100 98 100 69 92 99 90 97 100 90 100 89 85 85 86 100 99 100 100 100 100 100 100 100 14 0 34 100 66 33 46 100 100 68 55 6 97 100 100 100

GFSSW_prec_cloud_015.txt.gz
Cloud_Cover
0 0 39 100 6 0 78 100 100 100 100 100 100 100 100 98 100 100 100 100 100 100 99 93 100 100 100 100 100 100 99 100 100 100 100 100 100 100 100 100 99 100 100 100 100
7 21 0 19 4 23 1 76 100 100 100 100 100 100 100 100 97 56 100 100 100 100 100 100 100 100 100 100 100 98 81 100 100 100 100 100 100 100 100 100 98 100 100 100 100
0 0 20 3 2 94 100 98 97 100 100 100 100 100 100 89 43 100 59 98 81 97 96 100 100 100 100 100 100 100 100 100 100 100 100 100 100 100 100 99 100 100 100 100 100
0 0 0 0 0 0 0 0 20 100 100 100 100 100 100 100 79 2 4 93 100 90 80 99 100 100 100 97 100 100 99 99 100 100 100 100 100 100 100 100 100 100 65 77 100
0 0 0 0 0 0 0 0 0 0 0 12 52 76 50 100 89 98 100 59 6 99 88 31 15 96 100 100 100 100 96 90 98 100 88 86 100 100 100 100 100 100 92 8 5
0 0 0 0 0 0 0 0 0 0 0 0 0 44 56 55 100 55 100 100 100 100 100 100 99 78 8 51 96 100 99 48 5 9 100 100 100 100 100 100 100 100 22 3 5
0 0 0 0 0 0 0 5 0 0 0 0 12 78 59 2 0 3 0 33 76 100 98 61 100 100 59 1 20 31 43 17 24 78 85 100 100 100 100 100 98 10 0 0 0
0 0 0 0 0 0 0 0 0 3 4 1 44 47 32 0 0 0 0 0 0 0 1 81 94 47 98 99 31 1 29 31 53 100 100 100 99 100 100 92 6 5 1 0 1
0 0 0 0 0 0 0 0 0 0 9 0 37 16 1 5 0 0 0 0 0 0 0 1 0 0 0 0 0 84 36 13 98 100 100 100 45 60 60 5 0 0 3 25 16
0 0 0 0 0 0 1 0 0 0 0 2 48 68 1 9 5 4 0 0 0 0 0 0 0 0 0 0 0 4 100 100 100 100 26 10 0 1 4 0 0 3 2 3 3
0 0 0 0 0 11 21 0 0 0 5 56 44 100 2 0 3 81 36 5 0 0 0 0 0 0 0 0 0 0 0 0 0 99 100 6 0 0 0 0 0 0 0 4 5
0 0 0 0 0 0 7 7 91 16 11 0 0 0 0 0 0 0 84 98 26 0 0 0 0 0 0 0 0 0 0 0 0 2 40 71 0 0 0 0 0 0 0 0 0
0 0 3 0 0 0 5 73 19 8 0 0 0 0 0 0 0 0 0 41 100 83 11 0 0 0 0 0 0 0 0 0 0 0 0 0 0 0 0 0 0 0 0 0 0
0 0 23 0 1 0 0 0 0 1 3 72 96 81 2 0 0 0 0 0 21 100 100 3 0 0 0 0 0 0 0 0 0 0 0 0 0 0 0 0 0 0 0 0 0
0 0 1 1 0 0 0 3 39 2 95 100 94 98 85 61 100 88 35 3 0 5 91 39 8 3 0 0 0 0 0 0 0 0 0 0 0 0 0 0 0 0 0 0 0
0 0 1 0 0 0 0 2 100 100 100 98 100 88 98 100 60 20 100 26 67 44 4 9 5 5 2 1 0 0 0 0 0 0 0 0 0 0 0 0 0 0 0 0 2
0 0 24 0 0 0 0 4 94 69 100 100 100 100 100 100 100 100 100 100 98 74 1 2 10 5 5 5 0 0 0 0 0 0 0 0 0 0 3 0 0 0 0 0 0
0 0 0 0 4 0 2 5 9 50 99 17 100 100 100 100 100 99 97 85 98 99 0 24 31 1 5 23 5 5 1 0 0 0 0 0 0 0 0 0 0 0 0 0 0
5 5 0 1 0 1 3 5 6 65 96 44 4 5 59 64 96 54 2 0 2 96 13 39 15 92 36 1 5 44 4 2 0 0 0 0 0 0 0 0 0 0 0 0 0
100 5 2 5 0 2 47 4 77 100 23 100 64 17 5 100 100 100 100 96 26 33 11 16 0 91 100 63 0 5 21 3 0 0 0 0 0 0 0 0 0 0 0 0 0
14 31 5 9 0 5 55 5 18 100 100 100 92 4 24 100 89 89 100 65 96 100 65 74 9 13 100 100 1 0 8 4 0 0 0 0 0 5 93 7 0 0 0 1 0
2 40 5 5 9 10 52 5 80 86 20 19 14 100 98 7 68 80 97 98 100 86 86 85 17 40 55 88 22 0 0 64 67 3 2 4 3 36 67 31 4 0 0 2 0
66 71 41 34 12 5 42 76 8 5 19 36 0 22 6 7 85 100 97 100 100 90 100 99 6 49 7 76 92 4 2 4 5 100 12 64 4 24 99 90 2 0 0 4 9
25 31 87 40 14 5 37 14 17 90 48 5 5 76 100 59 76 100 98 46 90 100 100 64 73 50 55 100 100 61 3 100 24 23 71 5 90 64 89 3 0 0 1 5 98
10 16 42 79 100 35 100 47 96 32 100 44 83 30 53 33 3 2 68 85 90 100 100 100 98 100 42 99 89 37 52 67 3 1 14 84 30 3 36 2 0 3 1 50 100
12 36 100 100 66 59 77 61 99 100 87 100 100 71 99 100 84 6 5 16 8 100 100 100 100 100 100 100 100 32 92 5 1 0 2 34 66 100 100 95 0 0 32 100 100
5 16 82 85 100 73 81 92 100 99 99 6 73 79 79 100 90 31 39 5 56 100 100 98 84 100 100 100 100 13 34 5 0 0 2 66 57 11 54 100 20 1 99 100 100

GFSSW_prec_cloud_021.txt.gz
Cloud_Cover
84 94 98 17 2 0 0 0 0 0 98 100 100 100 58 95 100 100 100 100 100 100 100 100 100 100 100 100 100 100 100 100 100 100 100 100 100 100 100 100 100 72 88 100 100
68 72 68 2 90 38 0 0 0 2 96 100 100 91 39 100 100 100 100 100 100 100 100 100 100 100 77 99 100 100 100 100 100 100 100 100 100 100 100 100 100 100 100 100 100
98 100 100 48 29 4 55 13 0 0 3 100 100 100 96 92 100 100 100 100 100 100 100 100 100 100 100 99 92 100 100 100 100 100 100 100 100 100 100 100 100 100 100 100 100
99 86 2 0 0 0 0 0 0 0 0 0 90 100 100 100 100 100 100 100 100 100 100 100 100 100 96 88 100 80 100 100 100 100 100 100 100 100 100 100 100 100 100 100 100
16 12 0 0 0 0 0 0 0 0 4 65 100 70 79 81 100 100 100 100 100 100 100 100 100 100 69 86 97 15 77 39 98 100 100 100 100 100 100 100 100 100 100 100 100
0 0 0 0 0 0 0 0 0 1 1 97 100 100 6 39 71 100 100 99 100 100 100 100 100 99 99 48 86 70 6 72 100 70 100 99 100 100 100 100 100 100 100 100 86
0 0 0 0 0 2 0 0 0 7 22 95 100 100 94 1 0 3 100 100 100 100 100 100 100 66 13 61 5 28 9 4 5 82 100 100 100 100 100 100 100 100 34 21 10
85 42 0 0 0 0 0 0 0 3 17 88 100 92 30 0 0 0 1 100 100 100 100 94 100 100 67 32 73 99 29 4 51 100 100 100 18 100 100 100 100 99 53 6 6
65 0 0 0 4 44 26 18 0 0 0 0 19 43 30 0 0 0 0 0 0 35 100 100 100 86 67 10 24 5 5 12 100 100 93 88 1 34 100 100 56 14 2 4 5
6 1 0 0 11 26 49 0 0 0 0 0 1 13 0 0 0 0 0 0 0 0 0 100 100 100 27 31 16 83 74 100 100 100 96 4 0 5 97 24 0 0 0 4 8
3 0 0 0 0 4 24 0 0 0 0 0 0 2 4 0 0 0 0 0 0 0 0 0 1 100 100 91 99 100 5 1 9 100 100 12 0 93 5 1 0 5 5 5 5
0 0 0 0 0 1 0 0 0 2 0 0 0 5 5 5 0 0 100 42 0 0 0 0 0 1 90 9 2 33 18 25 5 81 100 84 0 0 0 4 34 95 100 100 100
2 0 0 0 0 0 0 0 0 0 0 0 0 0 12 15 2 0 83 42 3 5 4 0 0 4 3 0 0 0 6 100 71 100 64 89 0 0 61 62 56 47 100 100 100
1 1 4 47 0 0 0 0 0 0 0 0 0 6 65 35 86 3 98 100 86 1 0 0 0 0 5 4 0 0 0 19 7 98 5 7 0 0 1 1 41 100 100 0 0
5 38 24 40 14 0 0 0 0 0 0 0 0 65 98 100 57 78 43 100 5 94 51 0 0 0 0 4 5 0 0 0 0 0 0 0 0 0 0 0 2 0 0 0 0
25 28 98 0 22 3 0 0 0 0 0 0 0 20 100 38 21 92 100 97 79 0 0 0 0 0 0 0 10 28 0 0 0 0 0 0 0 0 0 0 0 0 0 0 0
66 8 68 0 0 0 0 0 0 4 0 2 2 1 100 100 98 97 100 100 90 98 38 92 9 0 1 0 1 64 48 3 0 0 0 0 0 0 0 0 0 0 0 0 0
6 3 0 0 0 0 0 0 3 2 5 5 5 4 2 4 48 100 100 100 100 100 100 75 36 90 97 70 0 7 96 62 2 0 0 0 0 0 0 0 0 0 0 0 0
0 0 0 0 0 0 0 5 5 9 5 7 31 0 4 0 83 50 80 100 100 100 100 100 100 100 98 100 76 0 5 97 72 0 0 0 0 0 0 0 0 0 0 0 0
38 13 0 0 2 1 5 4 5 16 80 56 5 5 5 3 6 100 100 100 100 100 100 100 97 100 100 86 89 4 4 39 52 3 0 0 0 0 2 0 0 0 0 0 0
5 0 0 3 3 5 17 5 1 5 92 22 7 5 5 6 95 62 100 100 100 100 100 100 98 100 93 71 97 70 5 5 5 4 0 0 0 0 29 0 0 0 0 0 2
8 2 0 5 5 5 5 5 6 26 100 100 48 51 37 5 6 4 100 96 98 81 100 90 99 100 59 10 96 100 29 4 5 1 0 0 0 0 0 0 0 0 1 0 31
100 66 0 2 5 6 6 16 8 6 96 87 98 40 15 5 55 5 92 64 84 5 5 3 5 23 84 1 13 4 17 5 2 3 0 0 34 0 3 0 0 4 1 7 38
72 5 0 0 0 6 84 77 82 66 63 84 9 34 79 93 38 31 4 5 5 17 5 5 13 5 7 16 39 5 76 6 1 5 0 0 88 0 2 2 0 0 5 3 31
16 4 8 4 5 7 80 85 48 100 49 59 67 84 91 100 100 40 100 92 5 5 15 21 94 99 96 5 5 6 5 14 44 5 0 0 100 0 1 5 2 0 0 13 0
5 5 7 59 8 85 98 93 100 94 96 99 97 99 100 100 100 96 100 100 92 5 87 50 86 100 100 86 90 50 5 5 5 5 5 1 79 100 90 51 2 0 7 2 0
5 5 6 5 5 27 86 70 100 100 80 97 99 100 99 79 100 100 100 88 100 100 86 100 100 100 96 67 100 74 3 4 0 0 2 4 100 100 88 9 2 3 20 33 30

GFSSW_prec_cloud_024.txt.gz
Cloud_Cover
100 100 100 66 6 0 0 0 0 0 0 1 5 10 100 86 100 100 100 100 100 100 96 97 100 87 77 100 100 100 100 100 100 100 100 100 95 100 100 100 100 100 100 93 97
100 93 15 0 0 0 0 1 0 0 0 0 2 4 8 91 100 100 100 100 100 100 100 99 100 100 61 99 100 100 100 100 100 100 100 100 100 100 100 100 100 100 100 95 98
100 95 70 0 16 9 4 0 0 0 0 0 0 7 9 100 100 100 100 100 100 100 100 100 100 100 41 35 94 100 89 100 100 100 100 100 100 100 100 100 100 100 100 100 100
95 24 9 14 0 43 82 53 7 0 0 5 53 100 30 83 100 100 100 100 100 100 100 100 100 100 14 48 100 38 57 100 100 100 100 100 100 100 100 100 100 100 100 100 100
12 2 1 0 0 0 0 0 0 4 38 100 100 100 10 5 2 38 100 100 100 100 100 100 100 100 31 92 97 43 76 69 100 100 100 100 100 100 100 100 100 100 100 100 100
2 0 0 0 0 1 1 0 6 61 100 100 100 100 67 0 0 0 76 100 100 100 100 100 89 100 24 5 84 72 31 94 100 100 100 100 100 100 100 100 100 100 100 100 79
1 0 1 0 0 0 3 0 0 38 95 98 64 26 11 3 0 0 0 100 100 99 30 70 100 83 28 98 11 69 69 99 39 99 100 100 58 65 100 100 100 100 100 100 100
0 0 5 6 0 0 0 0 0 0 0 0 38 0 14 0 0 0 0 7 100 100 100 98 76 100 99 100 96 7 98 22 3 100 100 100 27 100 100 100 100 93 5 0 5
51 7 46 16 4 2 0 0 0 0 0 0 0 38 10 0 0 0 0 0 0 21 94 100 74 99 100 97 31 100 5 5 76 100 99 86 10 27 99 100 13 5 5 3 5
25 0 0 4 0 0 2 0 0 0 0 0 0 36 0 0 0 0 0 0 0 0 0 0 10 43 100 41 26 98 100 77 72 100 95 5 0 5 91 46 2 0 5 5 5
28 0 0 0 6 0 2 0 0 0 0 0 0 0 0 0 0 0 0 0 0 0 0 0 0 0 0 34 100 100 5 95 100 100 100 28 0 6 4 5 5 6 5 1 0
5 13 79 8 4 2 0 0 5 14 1 0 0 0 0 0 0 0 0 0 0 0 0 0 0 0 0 0 2 6 74 23 100 91 93 87 0 0 5 5 63 30 12 5 9
16 100 100 30 19 0 0 0 0 2 2 0 0 0 0 0 0 4 0 0 5 5 1 15 0 0 0 3 0 0 0 47 100 100 99 56 0 0 4 7 89 19 100 92 99
65 100 100 94 0 0 0 0 0 0 0 0 0 0 0 0 0 4 0 2 73 27 5 46 9 72 4 0 5 5 0 0 0 46 100 33 0 0 41 7 30 24 100 87 1
100 100 100 100 13 0 0 0 0 0 0 0 0 0 0 0 0 97 4 7 5 100 100 5 0 2 96 0 16 6 4 0 0 0 0 6 0 24 38 7 100 100 100 15 5
100 100 100 1 64 4 0 0 0 0 0 0 0 0 0 0 0 65 4 4 12 67 100 3 12 95 5 0 0 0 0 0 2 2 0 0 0 1 94 100 100 100 100 56 58
80 46 98 0 0 0 0 0 0 0 0 0 1 0 0 0 0 1 41 29 91 100 87 60 41 99 72 48 0 18 1 0 0 0 0 0 0 0 42 10 0 1 58 89 100
0 0 14 1 0 0 0 0 2 0 0 4 5 0 0 0 1 0 75 100 100 100 88 100 84 88 99 57 1 59 82 0 0 0 0 0 0 0 0 0 0 0 0 9 1
0 0 0 0 0 0 0 5 5 5 5 18 3 0 0 0 4 0 0 56 100 100 100 100 100 100 94 88 10 8 83 0 1 0 0 0 0 0 0 0 0 0 0 0 0
32 0 0 0 0 0 0 2 0 5 5 6 6 5 6 5 0 5 0 6 94 100 100 100 100 100 100 95 100 12 0 8 19 0 0 0 0 0 0 0 0 0 0 0 0
0 0 0 0 0 3 2 4 5 5 5 23 6 30 16 50 5 5 5 4 45 100 100 100 100 100 100 98 76 98 4 1 1 0 0 0 0 0 2 0 0 0 0 0 4
2 0 2 0 4 4 5 5 5 5 52 36 32 59 7 71 83 89 16 5 5 95 100 100 100 100 100 97 23 43 83 12 0 0 0 0 0 0 79 0 0 0 0 16 61
100 75 0 0 5 7 5 5 5 5 5 14 24 45 46 74 88 100 100 25 56 46 91 95 100 100 100 64 5 0 25 86 5 0 0 0 0 0 87 0 0 0 0 93 100
52 3 5 0 4 5 66 59 89 99 22 50 51 16 32 99 97 99 68 31 6 26 5 33 59 100 100 95 4 2 5 4 4 2 0 0 84 2 87 0 0 0 0 100 100
12 4 33 19 5 5 94 100 72 98 100 100 60 81 100 100 100 100 97 100 100 100 44 49 99 63 70 20 18 5 5 4 10 13 20 0 34 9 87 0 4 0 10 100 100
57 8 5 16 5 6 5 5 67 100 96 100 100 100 100 100 100 100 100 100 100 100 100 50 81 55 100 100 6 5 5 5 5 5 5 6 85 32 35 5 58 5 12 98 100
100 79 54 70 5 13 13 5 6 100 100 100 100 100 100 76 82 100 100 100 100 100 100 100 74 22 64 29 5 16 3 1 0 0 1 5 100 100 88 98 24 8 0 0 19

GFSSW_prec_cloud_027.txt.gz
Cloud_Cover
100 92 83 25 51 0 1 0 0 0 0 0 0 0 2 2 10 100 100 100 100 94 78 82 100 100 98 81 89 92 95 100 100 100 100 100 83 92 100 98 100 100 91 90 100
94 44 38 0 0 0 0 0 0 1 0 0 2 30 0 4 5 100 100 100 100 100 100 91 98 100 93 100 88 75 5 100 100 100 100 100 100 100 66 33 100 100 100 100 44
0 0 0 0 0 0 2 2 0 0 0 1 99 84 16 0 0 74 100 100 100 100 100 99 100 94 88 94 54 91 11 100 100 100 100 100 100 100 84 4 13 95 100 100 99
3 1 1 0 0 0 0 0 1 1 18 88 100 3 0 0 0 7 100 100 100 100 100 100 100 100 96 85 100 49 78 100 100 100 100 100 100 100 100 100 90 45 99 100 100
6 0 0 0 0 2 9 5 1 10 97 100 70 0 0 0 0 0 1 93 88 80 100 100 100 100 100 100 100 62 94 72 100 100 100 100 100 100 100 100 100 100 100 100 100
5 0 0 3 0 0 0 0 9 35 97 27 0 0 0 0 0 0 0 0 0 10 28 95 100 100 100 89 94 78 82 94 100 100 100 100 100 100 100 100 100 100 100 100 100
41 5 0 0 0 0 1 0 0 0 51 0 0 0 0 0 0 0 0 0 0 0 0 47 93 100 88 100 100 100 89 65 99 100 100 100 28 52 100 100 81 100 100 100 100
50 15 0 0 0 0 0 5 3 0 0 0 2 2 0 0 0 0 0 0 0 0 0 0 48 98 99 92 100 100 100 10 19 100 100 100 10 100 100 100 100 100 99 47 29
99 59 78 50 2 0 0 0 0 0 0 0 0 0 0 0 0 0 0 0 0 0 0 0 1 38 63 100 64 12 55 76 100 100 100 91 1 52 42 88 77 100 23 12 64
100 33 57 100 14 4 0 0 0 0 2 0 0 0 0 0 0 0 0 0 0 0 0 0 0 0 0 1 38 95 87 8 61 100 98 41 0 5 18 36 5 36 100 100 100
92 100 99 100 31 0 0 0 0 0 0 0 0 0 0 0 0 0 0 0 0 0 0 0 0 0 0 0 0 1 10 5 5 16 99 38 2 0 1 0 0 5 64 60 71
100 100 100 100 15 4 0 0 0 0 0 0 0 0 0 0 0 0 0 0 0 0 0 0 0 0 0 0 0 0 0 0 5 5 4 0 0 4 2 0 0 0 3 6 93
100 100 100 100 4 0 0 0 0 0 1 0 0 0 0 0 0 0 0 0 0 0 3 5 0 0 0 1 5 16 5 0 1 5 0 0 0 0 5 2 5 4 8 19 96
89 100 100 99 0 0 0 0 0 0 0 0 0 0 0 0 0 0 0 0 0 5 5 5 0 0 0 2 26 100 82 5 2 2 0 0 0 0 0 3 40 100 100 100 100
100 100 100 100 52 0 0 0 0 0 0 0 0 0 0 0 0 0 0 0 0 0 33 3 5 96 9 68 3 26 99 74 56 5 0 0 0 0 63 4 3 100 100 97 88
36 100 99 42 93 0 0 0 0 0 0 0 0 0 0 0 0 0 0 0 0 3 12 3 33 5 6 5 85 28 0 30 95 77 17 0 0 0 0 37 100 100 100 84 86
4 20 30 0 0 0 0 0 0 0 0 0 0 0 0 0 0 0 0 0 5 90 51 26 5 73 100 100 91 24 66 0 4 35 2 0 0 0 0 0 0 4 77 100 90
0 0 1 0 0 0 0 0 0 0 0 0 5 0 0 0 0 0 0 0 5 46 69 96 95 99 78 100 91 14 4 0 0 0 0 0 0 0 0 0 0 0 0 0 0
3 0 0 0 0 0 0 0 0 0 2 5 3 5 1 0 5 3 0 0 28 95 100 97 100 56 94 100 100 98 82 0 2 0 0 0 0 0 0 0 0 0 0 0 0
4 5 5 0 0 0 0 1 0 5 5 5 72 5 18 13 5 21 2 0 4 31 100 100 100 100 100 100 100 100 91 51 93 2 0 0 0 0 0 1 0 0 0 0 0
4 5 5 0 0 0 4 4 4 3 5 18 53 76 75 84 9 79 10 4 45 92 95 100 100 100 100 100 100 100 90 37 77 2 4 0 0 0 0 5 0 0 0 0 0
5 5 5 4 3 1 5 5 5 3 5 6 34 31 61 54 70 96 74 25 5 5 5 58 100 100 100 100 100 100 100 50 96 4 2 1 0 0 0 26 0 0 0 0 23
100 13 5 5 5 5 4 5 7 5 5 50 79 38 48 83 95 91 88 91 24 5 5 51 100 100 100 49 100 100 100 97 5 4 91 16 0 0 0 8 0 0 0 1 100
100 8 13 5 5 5 50 6 7 5 15 90 92 33 48 62 73 98 100 100 100 72 5 64 55 65 82 47 41 100 31 5 12 5 5 41 0 0 4 0 0 0 0 0 100
100 86 21 28 6 3 34 61 34 81 66 86 92 100 100 98 94 99 100 100 100 100 100 96 87 80 62 5 5 55 71 5 5 5 17 4 0 0 18 0 0 0 0 0 100
100 98 7 33 28 5 6 5 55 60 59 70 100 100 100 98 84 100 100 100 100 100 100 100 100 90 87 5 5 5 10 0 5 5 5 5 27 97 69 84 43 0 0 2 98
100 100 96 66 98 42 17 5 5 82 10 46 100 99 96 36 100 99 100 100 100 100 100 100 100 98 89 73 58 36 4 0 0 0 0 1 35 100 100 98 87 0 0 0 54

GFSSW_prec_cloud_030.txt.gz
Cloud_Cover
2 4 6 2 3 8 4 12 16 11 4 0 0 0 0 0 100 100 100 100 76 59 100 100 100 100 100 100 90 99 18 35 100 100 100 100 98 89 44 5 65 100 93 83 98
19 0 2 0 2 1 3 7 7 14 13 14 5 0 0 0 0 4 2 57 100 100 100 99 100 100 100 100 100 100 30 89 100 100 100 100 100 98 87 5 5 5 6 64 99
5 6 0 5 0 8 16 11 10 18 19 12 19 7 0 0 0 0 0 76 100 100 100 100 100 100 100 100 100 100 9 100 100 100 100 100 100 100 100 100 94 61 5 5 11
5 0 0 0 0 1 6 11 3 2 3 0 18 0 0 0 0 0 0 0 0 11 100 100 100 100 90 100 100 100 100 100 100 100 100 100 99 8 30 100 100 100 70 5 67
100 55 1 11 0 1 5 9 9 12 12 0 0 0 0 0 0 0 0 0 0 0 0 94 100 100 100 100 99 16 100 100 100 100 100 100 100 100 30 100 100 100 98 82 80
54 97 69 3 1 1 0 0 0 10 7 0 0 0 0 0 0 0 0 0 0 0 0 0 58 100 100 100 99 100 95 100 100 100 100 100 100 100 77 100 100 86 100 100 100
40 28 21 2 1 4 0 0 0 22 14 0 0 0 0 0 0 0 0 0 0 0 0 0 0 0 23 100 100 100 72 100 98 84 100 100 100 12 100 88 5 60 98 100 100
68 100 34 7 2 2 0 0 0 2 0 0 0 0 0 0 0 0 0 0 0 0 0 0 0 0 0 96 100 100 100 86 46 100 100 100 21 79 100 98 8 93 62 13 91
3 78 94 100 63 1 0 0 0 0 0 0 0 0 0 0 0 0 0 0 0 0 0 0 0 0 0 0 76 100 100 100 100 100 100 100 5 78 100 100 100 59 54 15 16
74 100 100 100 78 5 4 0 0 0 0 0 0 0 0 0 0 0 0 0 0 0 0 0 0 0 0 0 0 9 17 68 100 100 100 20 2 21 76 92 5 48 60 94 21
8 100 100 100 15 4 6 2 0 0 0 0 0 0 0 0 0 0 0 0 0 0 0 0 0 0 0 0 0 0 0 0 0 32 100 91 4 5 5 87 5 5 5 53 5
0 49 100 100 0 0 1 0 0 0 0 0 0 0 0 0 0 0 0 0 0 0 4 0 0 0 0 0 0 0 0 0 0 0 0 61 7 100 20 0 5 4 3 27 84
37 100 100 100 0 11 0 0 0 0 0 0 0 0 0 0 0 0 0 0 2 0 1 5 0 3 0 0 0 3 5 3 3 5 0 1 0 18 79 25 6 27 5 5 41
100 100 85 10 3 0 0 0 0 0 0 0 0 0 0 0 2 0 0 1 1 5 5 0 2 5 5 5 5 5 6 56 40 48 0 0 0 2 18 31 78 100 100 100 100
26 100 98 62 0 0 0 0 0 0 0 0 0 0 0 0 0 0 0 0 5 5 47 0 80 98 44 19 100 99 97 100 100 82 71 2 4 0 1 8 36 35 100 100 100
10 35 23 0 0 0 0 0 0 3 0 0 0 0 0 0 0 0 0 0 2 5 45 87 50 84 93 100 51 100 100 100 100 100 92 12 71 0 0 0 16 98 98 60 75
3 6 28 0 0 0 0 0 3 0 0 0 0 0 0 3 0 0 0 3 19 4 17 80 100 100 86 88 100 100 100 100 100 100 80 62 100 0 0 0 0 0 2 4 2
96 41 5 0 0 0 0 3 1 0 0 0 3 1 5 5 5 5 0 7 96 24 20 83 100 72 100 100 100 100 100 100 100 100 62 100 99 0 0 0 0 0 0 0 0
6 41 39 5 5 0 2 5 3 0 1 5 5 5 62 84 90 36 5 5 56 100 88 100 96 100 88 100 100 49 100 40 100 100 100 8 37 0 0 0 0 0 0 0 0
24 99 100 37 5 5 5 2 1 4 6 65 100 90 100 100 98 99 66 10 64 100 97 98 94 100 84 72 100 74 100 100 100 100 100 65 9 0 0 0 0 0 0 0 0
91 100 100 66 5 5 5 2 4 5 38 81 94 98 100 100 100 100 100 81 96 48 100 100 97 100 92 80 100 100 100 100 100 100 100 100 0 0 2 0 0 0 0 0 0
100 100 100 100 44 5 5 5 2 5 71 100 73 92 96 100 99 100 100 100 100 98 38 100 96 100 100 99 100 100 100 100 100 73 100 100 100 0 0 0 0 0 0 1 85
100 100 100 100 100 7 32 5 5 32 92 97 87 100 90 92 99 93 100 100 100 100 100 100 86 87 99 60 100 100 100 100 100 100 39 100 100 2 0 0 0 0 0 0 19
100 100 100 100 84 18 52 5 29 83 74 98 70 76 94 95 97 82 100 100 100 100 100 100 100 100 100 89 100 100 100 100 100 100 100 100 100 51 0 0 0 0 0 0 12
100 100 100 100 92 64 39 5 34 93 100 100 68 100 92 95 87 85 100 100 100 100 100 100 100 100 100 100 98 44 100 100 100 100 100 67 100 100 26 13 2 0 0 0 60
100 100 98 97 100 96 49 6 68 76 100 35 72 100 100 100 100 91 100 100 100 100 100 100 100 100 98 100 95 6 78 91 100 65 65 5 3 60 4 100 0 0 0 0 85
100 100 100 100 100 100 100 96 41 96 100 88 100 100 89 62 100 100 100 100 100 100 100 100 100 93 82 100 100 41 50 79 42 5 5 2 87 10 73 70 18 5 0 0 100

GFSSW_prec_cloud_036.txt.gz
Cloud_Cover
0 1 0 0 1 5 1 4 0 6 6 9 11 1 10 18 0 0 0 0 1 35 100 100 100 100 100 79 100 100 96 100 100 100 100 100 100 100 71 100 100 100 100 100 100
10 0 0 0 0 0 5 1 7 3 10 8 5 0 1 4 0 0 0 0 0 0 41 77 78 100 100 100 100 100 15 42 100 100 100 100 100 100 18 45 100 99 44 81 10
71 0 0 0 0 5 0 0 2 1 2 0 0 0 0 0 0 0 0 0 0 0 0 100 98 50 90 100 100 100 7 100 100 100 100 100 100 86 4 21 100 100 99 20 13
100 91 4 0 0 3 0 0 2 9 4 0 0 5 2 0 0 0 0 0 0 0 0 14 88 98 96 100 100 100 100 100 100 100 100 98 100 57 13 4 48 76 99 100 95
97 54 2 8 0 1 4 5 0 0 0 0 0 16 0 0 0 0 0 0 0 0 0 0 0 0 10 88 100 26 72 100 100 100 100 60 13 17 54 100 85 24 98 98 59
3 5 8 8 7 7 0 5 5 2 0 0 0 6 0 0 0 0 0 0 0 0 0 0 0 0 0 2 31 99 42 99 77 100 100 93 96 100 13 98 100 100 100 96 96
0 0 0 5 3 10 0 0 0 0 0 0 0 0 0 0 0 0 0 0 0 0 0 0 0 0 0 0 2 93 19 30 100 42 100 100 100 100 99 100 58 5 45 100 98
4 0 7 9 12 11 0 0 0 0 0 0 0 0 0 0 0 0 0 0 0 0 0 0 0 0 0 0 0 0 0 0 92 100 100 100 100 100 100 100 100 98 97 100 26
33 23 21 5 17 3 0 0 0 0 0 0 0 0 0 0 0 0 0 0 0 0 0 0 0 0 0 0 0 0 0 0 18 41 100 100 46 61 100 100 100 94 77 84 100
100 100 15 0 1 0 0 0 0 0 0 0 0 0 0 0 0 0 0 0 0 0 0 0 0 0 0 0 0 0 0 0 0 88 100 100 75 5 100 100 95 100 99 100 49
100 98 100 27 0 0 1 0 0 0 0 0 0 0 0 0 0 0 0 0 0 0 0 0 0 0 0 0 0 0 0 0 0 1 100 100 21 14 100 100 100 100 100 100 19
84 70 52 2 0 0 2 0 0 0 0 0 0 0 0 0 0 0 0 0 0 0 0 0 0 0 0 0 0 0 0 0 0 0 0 0 0 0 57 100 100 100 40 5 64
91 28 5 11 3 0 0 0 0 0 0 0 0 0 0 0 0 0 0 0 0 0 0 0 0 0 5 5 8 3 2 0 0 0 0 0 0 0 0 5 100 100 100 69 6
100 100 100 95 73 71 10 2 0 0 1 22 0 0 0 0 3 0 0 0 0 2 4 1 2 2 4 3 9 5 7 62 5 1 0 0 1 0 0 0 7 72 100 100 100
100 100 100 100 100 100 99 13 5 0 74 2 0 0 0 0 1 86 3 3 4 5 5 4 6 46 35 72 100 98 100 66 48 35 45 0 0 0 0 0 0 0 0 63 100
100 100 100 100 100 100 87 90 68 50 97 0 0 0 3 5 62 8 83 32 80 84 95 87 28 100 68 13 37 80 62 76 98 71 91 0 42 0 0 0 0 40 88 6 0
100 100 100 100 100 100 100 100 100 99 11 47 21 0 1 18 82 9 39 49 96 90 100 53 99 100 100 76 59 16 48 100 100 100 32 1 92 1 0 0 2 17 2 5 2
55 68 100 100 100 100 100 100 100 100 98 5 1 0 4 100 99 33 72 83 100 75 57 99 98 53 89 48 54 71 66 97 100 100 96 98 100 0 1 4 5 5 20 0 0
8 97 100 100 100 100 100 100 100 100 84 74 71 38 96 100 100 46 98 96 51 57 57 98 99 98 98 100 100 99 84 66 75 100 8 0 0 0 0 0 1 0 39 52 1
100 5 26 100 100 100 100 100 100 100 100 97 15 85 100 98 60 50 91 93 80 29 95 48 67 90 37 100 84 79 52 8 94 85 33 8 16 87 0 11 0 20 98 24 0
2 68 68 11 9 46 100 100 100 94 50 17 73 100 98 98 92 100 99 23 93 53 68 40 60 2 65 40 46 71 86 99 71 98 99 100 5 98 100 47 83 98 99 65 0
0 93 5 34 41 100 100 100 100 100 99 100 95 98 100 100 100 97 91 100 100 100 100 100 100 11 99 72 15 100 96 100 100 94 28 7 5 100 100 93 100 100 100 74 4
2 7 8 0 4 5 39 68 100 100 97 91 96 90 93 100 56 80 86 77 100 100 100 100 94 62 100 63 98 38 89 99 99 63 99 83 100 100 100 100 100 100 100 3 94
3 62 81 1 51 95 20 68 100 100 100 32 10 63 92 99 100 69 99 99 100 100 100 100 100 100 98 100 100 100 92 5 98 93 100 100 85 100 100 100 100 85 14 28 100
33 44 5 5 10 5 52 68 100 100 99 91 95 100 100 90 14 47 72 100 100 100 100 100 100 100 100 94 100 100 100 91 5 97 100 100 100 100 100 100 100 100 100 19 95
75 55 5 5 10 63 38 82 96 66 34 5 94 100 77 81 100 92 100 100 97 100 100 100 100 100 100 100 100 100 79 2 22 100 100 100 100 100 100 100 100 41 6 1 4
50 44 61 5 31 96 37 29 7 36 15 74 73 100 44 50 96 11 79 43 88 100 100 100 100 100 100 100 100 100 34 6 78 100 100 100 100 100 100 99 92 24 97 5 5

GFSSW_prec_cloud_042.txt.gz
Cloud_Cover
2 2 4 0 2 2 1 0 2 0 8 0 1 4 2 5 1 0 0 0 0 0 100 100 100 100 100 56 100 100 38 100 100 100 100 100 100 99 20 95 100 92 100 97 100
0 0 1 4 2 0 0 0 0 0 1 3 4 5 3 16 47 4 0 0 0 0 0 100 100 100 100 100 100 100 100 100 100 100 100 100 100 100 5 20 86 54 94 90 100
0 0 0 0 0 2 0 1 0 0 0 2 5 6 0 33 42 0 0 0 0 0 0 7 98 100 100 100 100 100 99 100 100 100 100 100 100 100 9 74 60 55 27 30 83
40 4 8 2 0 7 6 6 0 1 2 2 10 2 0 56 0 0 0 0 0 0 0 0 0 0 97 100 100 100 100 100 100 100 100 100 100 100 99 100 76 30 100 27 79
100 100 100 100 22 4 3 0 2 1 2 2 3 2 5 0 0 0 0 0 0 0 0 0 0 0 1 55 100 100 100 100 100 100 100 100 100 100 100 100 81 100 100 100 100
100 100 100 100 100 77 2 17 43 18 6 12 15 7 18 3 0 0 0 0 0 0 0 0 0 0 0 38 99 100 100 100 100 100 100 100 100 100 100 100 100 100 100 100 78
100 100 100 100 100 20 31 17 0 11 1 1 12 10 2 9 2 0 0 0 0 0 0 0 0 0 0 2 100 100 100 88 100 100 100 100 100 100 100 100 100 100 100 63 77
27 5 39 100 100 100 100 98 2 9 0 0 0 0 0 3 39 8 0 0 0 0 0 0 0 0 0 0 48 84 11 46 100 100 100 100 100 100 100 100 100 100 100 100 100
100 97 38 100 100 100 100 38 0 0 0 0 0 0 0 0 2 5 8 2 0 0 0 0 0 0 0 0 0 0 0 0 77 72 21 97 97 100 100 100 100 84 84 100 100
5 54 100 98 100 100 87 0 0 0 0 0 0 0 0 0 0 0 1 2 5 1 0 0 0 0 0 0 0 0 0 0 0 0 0 0 24 100 100 61 78 99 76 87 100
17 34 38 100 100 100 61 6 4 0 0 0 0 0 0 0 0 0 0 0 0 0 0 0 0 0 0 0 0 0 0 0 0 0 0 0 0 0 46 95 100 100 100 100 100
10 0 3 5 66 100 100 83 10 3 1 0 0 0 0 0 0 0 0 0 0 0 0 0 0 0 0 0 0 0 0 0 0 0 0 0 0 0 0 0 0 39 93 100 100
0 6 21 5 12 65 6 6 30 98 68 16 1 0 0 0 0 0 0 0 0 0 0 0 0 0 0 0 0 0 0 0 0 0 0 0 0 0 0 0 0 0 0 8 66
0 0 2 24 2 5 34 5 5 9 99 100 6 1 0 0 0 0 0 0 0 0 0 0 0 0 0 0 0 0 0 0 2 0 0 0 0 0 0 0 0 0 0 0 0
0 0 0 45 4 5 5 5 17 100 65 100 100 100 100 5 2 0 4 0 0 0 0 0 0 0 0 0 0 0 0 0 0 0 4 0 4 0 0 0 0 0 0 0 0
0 0 73 0 17 3 5 36 96 95 43 60 85 100 100 5 4 59 25 16 0 0 0 1 0 0 0 0 0 0 0 0 0 0 4 0 27 0 0 0 0 0 0 0 0
5 0 35 0 0 3 5 71 92 98 98 69 100 100 100 26 74 100 71 92 5 4 3 0 0 0 0 0 0 0 5 4 1 0 0 0 26 0 0 0 0 0 0 0 0
5 0 0 0 0 0 0 2 7 98 90 96 100 100 100 65 100 100 48 36 5 0 0 0 0 0 0 0 1 0 0 90 95 30 71 29 1 0 0 0 0 0 0 0 0
1 5 0 0 0 0 0 2 30 91 66 100 100 98 100 85 100 75 64 100 5 0 0 0 2 2 0 1 38 0 1 99 94 28 100 5 0 0 0 0 0 0 0 0 0
13 5 0 0 0 0 0 2 5 5 9 74 96 100 100 100 46 17 40 20 3 0 0 2 2 97 3 3 56 100 17 4 36 100 76 5 0 0 0 0 0 0 0 0 0
5 5 5 5 0 0 0 1 4 5 46 14 16 81 48 94 85 48 2 0 1 0 0 0 13 97 28 6 5 56 21 34 6 51 100 12 4 2 0 0 0 0 0 0 0
14 5 5 5 4 0 2 5 2 5 5 5 16 5 5 3 2 0 2 3 5 2 5 3 80 100 100 100 86 100 100 100 79 37 9 32 13 0 3 5 5 0 0 0 0
71 5 5 5 5 0 2 5 5 5 5 5 5 5 6 4 60 5 5 49 64 70 90 21 60 87 99 100 100 100 100 100 100 100 63 42 4 32 8 48 12 0 0 0 0
17 5 5 5 5 5 3 4 0 2 26 5 5 5 5 5 64 5 5 5 5 5 68 100 100 100 96 66 100 100 100 100 100 92 97 36 95 100 91 28 10 58 97 32 4
100 12 30 5 5 5 4 4 5 0 0 0 2 1 93 14 5 5 5 5 2 26 39 99 100 100 100 100 95 100 100 96 91 80 98 91 1 99 42 41 100 99 97 100 39
100 71 83 5 5 5 5 5 5 4 0 0 0 5 5 5 41 14 27 7 5 25 78 100 100 100 100 100 44 100 100 100 100 63 5 5 12 5 100 100 100 100 100 100 72
100 100 70 49 5 5 5 5 1 1 0 0 1 5 5 55 93 20 87 48 6 5 46 93 99 100 100 96 45 100 100 100 82 85 97 53 3 99 100 100 100 100 100 93 100

GFSSW_prec_cloud_045.txt.gz
Cloud_Cover
0 0 1 2 17 15 0 0 1 0 0 1 0 1 0 1 0 0 0 0 0 0 0 1 100 100 94 93 100 100 97 100 100 100 100 100 100 100 100 73 52 5 4 13 69
72 33 10 40 13 1 41 41 0 0 0 0 0 0 1 15 28 33 0 0 0 0 0 0 22 95 100 100 100 100 100 100 100 100 100 100 100 100 100 100 78 6 86 12 56
100 100 100 100 100 60 13 57 37 0 1 1 2 5 10 57 35 0 0 0 0 0 0 0 0 42 100 100 100 100 100 100 100 100 100 100 100 100 100 100 83 31 5 17 72
100 100 100 100 100 100 100 2 60 4 1 1 4 9 6 27 0 0 0 0 0 0 0 0 0 0 31 100 100 100 100 100 100 100 100 100 100 100 100 100 92 88 74 23 5
78 96 100 100 100 100 100 92 100 85 1 7 14 18 11 0 0 0 0 0 0 0 0 0 0 0 0 70 100 99 100 100 100 100 100 100 100 100 100 100 100 100 73 26 60
48 31 21 16 91 100 100 100 100 100 18 16 23 28 4 0 0 3 1 0 0 0 0 0 0 0 0 0 9 97 100 100 100 100 100 100 100 100 100 100 100 100 100 100 100
26 100 100 100 100 100 100 100 100 100 22 12 29 19 0 0 5 5 0 0 0 0 0 0 0 0 0 0 0 89 100 100 100 100 100 100 100 20 100 100 100 100 100 93 24
66 57 100 97 97 100 100 100 38 14 13 20 0 0 0 0 0 1 5 3 0 0 0 0 0 0 0 0 0 62 100 100 100 100 100 100 100 100 100 100 100 98 100 41 50
100 74 69 86 36 97 98 6 8 3 8 0 0 0 0 0 0 0 0 5 5 2 0 0 0 0 0 0 0 0 9 92 100 100 100 100 100 100 100 100 100 100 99 10 5
100 78 16 60 25 8 18 6 0 0 0 0 0 0 0 0 0 0 0 1 5 5 5 0 0 0 0 0 0 0 0 0 61 100 100 23 100 100 100 100 100 100 100 100 66
61 20 0 9 24 10 91 58 27 4 5 0 0 0 0 0 0 0 0 0 1 5 5 5 4 0 0 0 0 0 0 0 0 0 0 3 0 5 100 100 100 100 100 100 100
0 0 7 0 1 15 58 100 94 9 5 5 1 0 0 0 0 0 0 0 0 0 0 3 5 1 0 0 0 0 0 0 0 0 0 0 0 5 85 100 100 100 100 100 100
0 1 81 32 0 0 2 40 73 5 46 29 7 2 0 1 0 0 0 0 0 0 0 0 0 0 0 0 0 0 0 0 0 0 0 0 0 0 10 58 100 100 100 100 100
5 87 97 70 0 0 1 5 6 20 44 16 5 80 100 5 2 0 0 0 0 0 0 0 0 0 0 0 0 0 0 0 0 0 0 0 0 0 0 2 44 94 2 12 94
54 93 100 94 3 0 0 5 5 72 94 21 81 100 100 100 87 5 5 5 2 0 0 0 0 0 0 0 0 0 0 0 0 0 0 0 0 0 0 0 0 0 0 0 0
42 55 98 5 26 0 0 4 4 5 79 37 100 100 99 24 15 38 5 5 5 2 0 4 1 0 0 0 0 0 0 0 0 0 0 0 0 0 0 0 0 0 0 0 0
3 0 49 5 5 1 0 0 1 6 67 43 96 100 98 95 81 81 94 50 27 34 70 14 4 0 0 0 0 0 0 1 2 0 0 0 19 0 0 0 0 0 0 0 0
5 5 4 5 5 5 0 0 4 23 35 7 66 96 72 100 96 78 72 49 74 99 27 5 0 0 0 0 0 0 0 0 5 5 0 0 1 0 0 0 0 0 0 0 0
5 5 5 5 5 3 1 0 5 38 5 5 83 78 65 58 98 100 80 83 100 8 5 3 0 0 0 0 0 0 0 29 50 5 52 1 0 0 0 0 0 0 0 0 0
30 5 5 5 5 5 5 2 5 5 5 4 7 7 5 46 69 86 36 17 53 7 2 0 2 0 4 0 0 4 7 77 99 89 98 2 0 0 0 0 0 0 0 0 0
67 42 9 6 5 5 5 2 0 3 4 0 0 1 5 7 24 5 5 1 1 5 1 0 1 0 5 4 1 33 49 10 70 100 100 48 2 0 0 1 5 2 0 0 0
99 99 37 44 9 5 5 5 5 0 0 4 5 5 5 5 4 3 1 2 5 5 0 0 5 24 100 55 4 96 100 100 100 30 30 94 17 0 0 91 5 0 0 0 0
99 88 95 70 96 22 5 5 5 3 2 0 4 5 5 5 5 0 4 5 5 4 3 5 40 99 98 34 98 87 96 94 100 100 70 82 3 13 16 82 6 0 0 0 0
98 41 92 20 93 69 5 5 5 5 5 0 1 5 5 5 5 5 4 4 5 5 5 5 67 100 100 83 33 96 97 100 100 100 84 93 1 5 100 54 18 1 0 0 0
100 73 74 65 44 97 6 5 5 0 0 0 0 0 0 5 5 5 5 9 5 5 5 56 100 21 72 82 21 100 38 99 100 88 100 38 5 93 39 4 5 0 0 46 62
100 97 5 70 99 100 18 32 5 5 2 0 0 0 5 4 4 90 5 58 98 18 34 61 74 93 100 78 42 100 88 18 100 69 66 90 46 4 4 5 34 100 100 100 100
100 100 81 7 10 100 38 43 5 5 0 0 0 0 4 4 4 2 92 100 100 100 7 97 100 100 100 100 100 100 100 100 100 100 100 100 87 67 5 39 100 100 100 100 100

GFSSW_prec_cloud_048.txt.gz
Cloud_Cover
100 100 100 100 100 95 78 39 0 0 0 4 0 1 0 0 0 0 0 0 0 0 0 0 0 0 29 99 84 80 48 52 100 100 100 100 100 100 100 100 19 5 22 6 0
100 100 100 100 100 100 100 100 16 3 0 6 2 6 4 55 9 2 0 0 0 0 0 0 0 0 14 60 100 100 40 59 100 100 100 100 100 100 100 100 14 28 45 22 5
75 100 100 100 100 100 100 100 74 3 3 6 6 14 10 34 17 0 0 0 0 0 0 0 0 0 0 4 98 100 54 100 100 100 100 100 100 100 100 100 95 29 12 89 100
28 64 93 97 100 100 100 100 100 100 75 3 5 8 18 8 0 0 0 0 0 0 0 0 0 0 0 0 19 100 100 100 100 100 100 100 100 100 100 100 100 98 99 98 65
100 100 100 100 100 100 100 100 100 100 100 25 35 93 2 0 0 0 0 0 0 0 0 0 0 0 0 0 16 7 100 100 100 100 100 100 100 100 100 100 100 100 23 92 80
100 100 100 100 100 100 100 100 100 100 100 66 97 97 2 0 0 0 0 0 0 0 0 0 0 0 0 0 4 100 97 100 100 100 100 100 100 100 100 100 100 100 96 13 48
100 100 100 100 100 100 100 100 100 100 26 18 100 39 0 0 0 0 0 0 5 0 0 0 0 0 0 0 0 0 17 100 100 100 100 100 100 100 100 100 100 100 62 64 7
100 100 100 100 100 100 99 24 90 56 35 13 39 36 0 0 0 0 0 0 0 2 0 0 0 0 5 1 0 0 2 100 100 100 100 100 100 100 100 100 100 100 100 9 60
100 100 86 74 69 100 100 60 40 13 18 8 14 0 0 0 0 0 0 0 0 4 0 0 0 0 2 17 0 0 0 54 100 100 100 100 100 100 100 100 100 100 94 30 79
2 7 12 57 62 84 84 0 5 5 1 0 0 0 0 0 0 0 0 0 0 0 5 5 5 0 3 7 1 0 0 0 1 2 4 100 100 100 100 100 100 100 100 98 18
0 4 94 100 100 49 48 5 5 5 6 5 0 0 0 0 0 0 0 0 0 0 0 4 46 5 5 5 5 0 0 0 0 0 0 100 100 100 100 100 100 100 100 100 100
0 68 100 100 90 11 1 0 4 4 26 11 5 2 1 0 0 0 0 0 0 0 0 0 1 34 29 5 5 5 0 0 0 0 0 6 99 100 100 100 100 100 100 100 100
7 100 100 100 7 0 0 0 1 5 5 5 5 16 21 5 3 0 0 0 0 0 0 0 0 0 3 16 8 4 0 0 0 0 0 0 0 33 48 100 100 100 100 100 100
76 100 100 100 3 5 0 0 2 5 5 20 5 33 38 86 99 87 7 0 0 0 0 0 0 0 0 0 1 5 5 0 0 0 0 0 0 0 0 14 100 100 100 100 100
95 100 100 99 3 5 5 0 2 3 6 5 16 100 100 100 100 100 100 96 6 0 0 0 0 0 0 0 0 0 0 0 0 0 0 0 0 0 0 0 68 100 100 100 88
40 46 83 38 40 2 5 5 0 3 4 3 6 98 100 100 100 100 100 100 100 10 5 26 0 0 0 0 0 0 0 0 0 0 1 0 0 0 0 0 0 12 53 79 100
18 6 28 5 4 5 5 1 0 4 5 5 5 5 90 100 100 87 65 70 72 100 100 100 65 4 2 0 0 0 0 0 0 0 0 0 0 0 0 0 0 0 0 0 2
26 24 21 5 4 5 5 5 2 0 3 0 5 37 35 96 100 100 100 99 99 100 100 100 100 100 100 12 5 0 0 0 0 0 0 0 0 0 0 0 0 0 0 0 0
96 71 51 15 9 5 5 5 5 5 0 0 1 4 3 3 1 43 95 94 100 99 100 98 100 100 97 10 3 0 0 2 0 0 62 0 0 0 0 0 0 0 0 0 0
88 75 47 31 40 5 15 5 18 6 5 2 0 0 0 0 0 5 13 58 100 100 100 100 51 98 44 0 0 0 5 5 63 31 5 0 0 0 0 0 0 0 0 0 0
100 100 89 67 81 20 61 20 5 34 6 2 0 0 0 0 0 0 0 0 0 19 54 22 2 0 0 0 0 4 5 5 61 99 90 66 0 0 5 4 0 2 1 69 4
100 100 100 93 98 96 41 100 11 5 84 5 0 4 4 1 4 5 2 0 7 4 5 4 5 11 3 0 0 0 0 5 90 37 85 100 3 2 24 5 14 5 0 5 6
80 64 100 100 100 100 9 66 57 40 75 37 3 4 5 5 21 5 2 0 14 70 73 22 24 8 1 2 3 0 4 5 41 99 89 100 26 5 23 9 4 2 0 0 0
28 15 66 100 100 100 96 57 60 10 67 84 4 0 0 5 29 30 5 3 3 5 36 6 20 80 5 5 4 76 63 16 71 100 54 90 28 96 54 2 4 0 1 0 0
5 6 31 94 100 100 100 64 68 60 9 18 4 0 2 2 4 4 2 5 20 4 98 99 100 74 57 16 5 5 5 100 58 60 100 18 81 100 100 21 5 72 6 0 0
6 5 8 94 98 100 94 92 11 89 17 72 3 3 4 3 5 75 50 6 5 5 5 100 100 100 95 5 5 8 85 99 36 61 100 94 100 100 100 77 5 4 0 12 32
99 88 34 43 99 100 97 94 5 6 56 25 3 5 4 2 5 2 3 7 17 77 91 100 100 100 100 7 27 25 89 5 93 100 100 89 100 100 100 87 36 88 99 62 100